SUR4097 SCEL-SCTE

Flight info

Callsign SUR4097
Flight time N/A
Altitude 35000
Route ANGOD6C ANGOD UQ803 ERUKA DCT SARTO SARTO2A
Aircraft A21N/M-SDE2E3FGHIRWXY/LB1

Departure

Time N/A
Airport Comodoro Arturo Merino Benítez International Airport (SCEL)

Arrival

Time 2026-05-03 22:48
Airport El Tepual International Airport (SCTE)
Time Latitude Longitude Altitude Speed Heading
2026-05-03 21:34 -34.29392 -71.00054 21158 ft 398 kts 200°
2026-05-03 21:34 -34.32093 -71.00794 21551 ft 399 kts 200°
2026-05-03 21:35 -34.34823 -71.01540 21963 ft 401 kts 201°
2026-05-03 21:35 -34.37519 -71.02276 22365 ft 402 kts 201°
2026-05-03 21:35 -34.40292 -71.03034 22734 ft 404 kts 201°
2026-05-03 21:35 -34.43008 -71.03780 23113 ft 405 kts 201°
2026-05-03 21:36 -34.45789 -71.04542 23507 ft 406 kts 201°
2026-05-03 21:36 -34.48548 -71.05300 23875 ft 408 kts 201°
2026-05-03 21:36 -34.51344 -71.06069 24220 ft 410 kts 201°
2026-05-03 21:36 -34.54155 -71.06841 24561 ft 412 kts 202°
2026-05-03 21:37 -34.56967 -71.07614 24925 ft 413 kts 201°
2026-05-03 21:37 -34.59792 -71.08392 25254 ft 415 kts 201°
2026-05-03 21:37 -34.62616 -71.09169 25615 ft 416 kts 202°
2026-05-03 21:37 -34.65425 -71.09942 25965 ft 416 kts 202°
2026-05-03 21:38 -34.68255 -71.10722 26264 ft 418 kts 202°
2026-05-03 21:38 -34.71115 -71.11511 26566 ft 420 kts 202°
2026-05-03 21:38 -34.73957 -71.12277 26845 ft 423 kts 201°
2026-05-03 21:38 -34.76862 -71.12995 27120 ft 425 kts 201°
2026-05-03 21:39 -34.79792 -71.13699 27415 ft 427 kts 200°
2026-05-03 21:39 -34.82710 -71.14397 27702 ft 428 kts 200°
2026-05-03 21:39 -34.85617 -71.15095 27947 ft 429 kts 200°
2026-05-03 21:39 -34.88571 -71.15811 28227 ft 430 kts 200°
2026-05-03 21:40 -34.91500 -71.16519 28499 ft 431 kts 200°
2026-05-03 21:40 -34.94445 -71.17233 28855 ft 430 kts 201°
2026-05-03 21:40 -34.97424 -71.17953 29247 ft 428 kts 201°
2026-05-03 21:40 -35.00315 -71.18657 29644 ft 425 kts 201°
2026-05-03 21:41 -35.03228 -71.19366 30018 ft 423 kts 201°
2026-05-03 21:41 -35.06131 -71.20077 30332 ft 422 kts 201°
2026-05-03 21:41 -35.09023 -71.20783 30677 ft 421 kts 201°
2026-05-03 21:41 -35.11851 -71.21477 30956 ft 421 kts 201°
2026-05-03 21:42 -35.14753 -71.22188 31249 ft 421 kts 201°
2026-05-03 21:42 -35.17606 -71.22886 31555 ft 420 kts 201°
2026-05-03 21:42 -35.20475 -71.23588 31870 ft 419 kts 201°
2026-05-03 21:42 -35.23351 -71.24293 32218 ft 416 kts 201°
2026-05-03 21:43 -35.26189 -71.24987 32537 ft 415 kts 202°
2026-05-03 21:43 -35.29001 -71.25680 32783 ft 415 kts 202°
2026-05-03 21:43 -35.31830 -71.26376 33061 ft 414 kts 201°
2026-05-03 21:43 -35.34678 -71.27072 33342 ft 413 kts 202°
2026-05-03 21:44 -35.37479 -71.27765 33575 ft 413 kts 202°
2026-05-03 21:44 -35.40306 -71.28464 33816 ft 413 kts 202°
2026-05-03 21:44 -35.43138 -71.29160 33998 ft 414 kts 202°
2026-05-03 21:44 -35.45983 -71.29864 34168 ft 415 kts 202°
2026-05-03 21:45 -35.48807 -71.30559 34367 ft 415 kts 202°
2026-05-03 21:45 -35.51654 -71.31261 34563 ft 416 kts 202°
2026-05-03 21:45 -35.54485 -71.31960 34759 ft 416 kts 202°
2026-05-03 21:45 -35.57346 -71.32670 34959 ft 416 kts 202°
2026-05-03 21:46 -35.60173 -71.33373 35101 ft 418 kts 202°
2026-05-03 21:46 -35.63055 -71.34090 35099 ft 418 kts 202°
2026-05-03 21:46 -35.68773 -71.35512 35100 ft 418 kts 202°
2026-05-03 21:47 -35.74471 -71.36930 35106 ft 416 kts 202°
2026-05-03 21:47 -35.80175 -71.38351 35110 ft 415 kts 202°
2026-05-03 21:48 -35.85886 -71.39777 35121 ft 417 kts 203°
2026-05-03 21:48 -35.91562 -71.41196 35123 ft 416 kts 202°
2026-05-03 21:49 -35.97232 -71.42615 35124 ft 415 kts 203°
2026-05-03 21:49 -36.02901 -71.44035 35132 ft 417 kts 203°
2026-05-03 21:50 -36.08589 -71.45464 35128 ft 416 kts 203°
2026-05-03 21:50 -36.14280 -71.46892 35108 ft 415 kts 203°
2026-05-03 21:51 -36.19937 -71.48318 35107 ft 414 kts 203°
2026-05-03 21:51 -36.25625 -71.49754 35099 ft 416 kts 203°
2026-05-03 21:52 -36.31312 -71.51190 35105 ft 415 kts 203°
2026-05-03 21:52 -36.37049 -71.52639 35113 ft 414 kts 203°
2026-05-03 21:53 -36.42703 -71.54072 35114 ft 413 kts 203°
2026-05-03 21:53 -36.48351 -71.55506 35106 ft 415 kts 203°
2026-05-03 21:54 -36.53999 -71.56939 35101 ft 415 kts 204°
2026-05-03 21:54 -36.59676 -71.58384 35104 ft 415 kts 204°
2026-05-03 21:55 -36.65339 -71.59829 35098 ft 414 kts 203°
2026-05-03 21:55 -36.70982 -71.61266 35093 ft 413 kts 203°
2026-05-03 21:56 -36.76636 -71.62711 35093 ft 413 kts 204°
2026-05-03 21:56 -36.82330 -71.64169 35085 ft 415 kts 204°
2026-05-03 21:57 -36.87997 -71.65621 35088 ft 415 kts 204°
2026-05-03 21:57 -36.93668 -71.67076 35085 ft 416 kts 204°
2026-05-03 21:58 -36.99325 -71.68530 35076 ft 415 kts 204°
2026-05-03 21:58 -37.04970 -71.69982 35075 ft 413 kts 204°
2026-05-03 21:59 -37.10634 -71.71443 35067 ft 413 kts 204°
2026-05-03 21:59 -37.16301 -71.72908 35071 ft 415 kts 204°
2026-05-03 22:00 -37.21894 -71.74352 35070 ft 412 kts 205°
2026-05-03 22:00 -37.27562 -71.75823 35073 ft 415 kts 204°
2026-05-03 22:01 -37.33202 -71.77288 35065 ft 414 kts 204°
2026-05-03 22:01 -37.38833 -71.78749 35068 ft 412 kts 204°
2026-05-03 22:02 -37.44485 -71.80218 35067 ft 412 kts 204°
2026-05-03 22:02 -37.50116 -71.81686 35066 ft 411 kts 204°
2026-05-03 22:03 -37.55731 -71.83151 35065 ft 412 kts 204°
2026-05-03 22:03 -37.58534 -71.83884 34945 ft 410 kts 205°
2026-05-03 22:03 -37.61341 -71.84617 35016 ft 410 kts 205°
2026-05-03 22:04 -37.66957 -71.86086 35046 ft 412 kts 205°
2026-05-03 22:04 -37.72556 -71.87595 35067 ft 408 kts 206°
2026-05-03 22:05 -37.78061 -71.89298 35067 ft 405 kts 207°
2026-05-03 22:05 -37.83559 -71.91020 35069 ft 408 kts 207°
2026-05-03 22:06 -37.89057 -71.92738 35069 ft 405 kts 207°
2026-05-03 22:06 -37.94530 -71.94450 35068 ft 405 kts 207°
2026-05-03 22:07 -38.00069 -71.96184 35071 ft 405 kts 207°
2026-05-03 22:07 -38.05553 -71.97898 35067 ft 405 kts 207°
2026-05-03 22:08 -38.11082 -71.99639 35067 ft 405 kts 207°
2026-05-03 22:08 -38.16544 -72.01354 35061 ft 401 kts 207°
2026-05-03 22:09 -38.21976 -72.03062 35061 ft 402 kts 207°
2026-05-03 22:10 -38.30117 -72.05635 35058 ft 402 kts 207°
2026-05-03 22:10 -38.35593 -72.07363 35051 ft 402 kts 207°
2026-05-03 22:11 -38.41000 -72.09071 35058 ft 401 kts 207°
2026-05-03 22:11 -38.46419 -72.10789 35051 ft 402 kts 207°
2026-05-03 22:12 -38.51878 -72.12527 35053 ft 403 kts 207°
2026-05-03 22:12 -38.57338 -72.14270 35051 ft 404 kts 208°
2026-05-03 22:13 -38.62784 -72.16011 35050 ft 400 kts 207°
2026-05-03 22:13 -38.68182 -72.17736 35045 ft 402 kts 207°
2026-05-03 22:14 -38.73632 -72.19480 35045 ft 402 kts 207°
2026-05-03 22:14 -38.79078 -72.21227 35044 ft 403 kts 207°
2026-05-03 22:15 -38.84523 -72.22973 35041 ft 402 kts 207°
2026-05-03 22:15 -38.89974 -72.24725 35038 ft 401 kts 207°
2026-05-03 22:16 -38.95384 -72.26471 35044 ft 400 kts 207°
2026-05-03 22:16 -39.00830 -72.28223 35041 ft 403 kts 208°
2026-05-03 22:17 -39.06253 -72.29977 35036 ft 402 kts 207°
2026-05-03 22:17 -39.11674 -72.31728 35036 ft 401 kts 207°
2026-05-03 22:18 -39.17092 -72.33479 35033 ft 401 kts 208°
2026-05-03 22:18 -39.22503 -72.35236 35030 ft 400 kts 207°
2026-05-03 22:19 -39.27953 -72.37008 35030 ft 402 kts 207°
2026-05-03 22:19 -39.33353 -72.38762 35028 ft 403 kts 207°
2026-05-03 22:20 -39.38825 -72.40543 35027 ft 401 kts 207°
2026-05-03 22:20 -39.44236 -72.42307 35020 ft 402 kts 208°
2026-05-03 22:21 -39.49636 -72.44074 35018 ft 402 kts 208°
2026-05-03 22:21 -39.55047 -72.45843 35020 ft 403 kts 208°
2026-05-03 22:22 -39.60498 -72.47632 35026 ft 400 kts 207°
2026-05-03 22:22 -39.65908 -72.49403 35023 ft 401 kts 207°
2026-05-03 22:23 -39.71322 -72.51185 35014 ft 401 kts 207°
2026-05-03 22:23 -39.76744 -72.52962 35013 ft 402 kts 207°
2026-05-03 22:24 -39.82166 -72.54712 35018 ft 402 kts 207°
2026-05-03 22:24 -39.87607 -72.56465 34875 ft 402 kts 207°
2026-05-03 22:24 -39.90349 -72.57346 34653 ft 400 kts 207°
2026-05-03 22:25 -39.93047 -72.58217 34441 ft 397 kts 207°
2026-05-03 22:25 -39.95723 -72.59078 34190 ft 398 kts 207°
2026-05-03 22:25 -39.98424 -72.59957 33717 ft 396 kts 207°
2026-05-03 22:25 -40.00998 -72.60789 33184 ft 393 kts 207°
2026-05-03 22:26 -40.03698 -72.61666 32519 ft 392 kts 206°
2026-05-03 22:26 -40.06324 -72.62522 31838 ft 393 kts 206°
2026-05-03 22:26 -40.08984 -72.63391 31181 ft 392 kts 206°
2026-05-03 22:26 -40.11646 -72.64259 30479 ft 394 kts 205°
2026-05-03 22:27 -40.14316 -72.65127 29768 ft 395 kts 206°
2026-05-03 22:27 -40.16989 -72.66001 29049 ft 396 kts 205°
2026-05-03 22:27 -40.19698 -72.66885 28370 ft 397 kts 205°
2026-05-03 22:27 -40.22343 -72.67743 27799 ft 395 kts 205°
2026-05-03 22:28 -40.25010 -72.68610 27323 ft 390 kts 205°
2026-05-03 22:28 -40.27639 -72.69462 26830 ft 387 kts 205°
2026-05-03 22:28 -40.30239 -72.70311 26359 ft 383 kts 205°
2026-05-03 22:28 -40.32825 -72.71153 25900 ft 380 kts 205°
2026-05-03 22:29 -40.35412 -72.72000 25451 ft 377 kts 205°
2026-05-03 22:29 -40.37946 -72.72831 24959 ft 375 kts 205°
2026-05-03 22:29 -40.40474 -72.73663 24467 ft 375 kts 204°
2026-05-03 22:29 -40.43001 -72.74492 23983 ft 373 kts 204°
2026-05-03 22:30 -40.45492 -72.75310 23533 ft 371 kts 204°
2026-05-03 22:30 -40.47996 -72.76135 23078 ft 369 kts 204°
2026-05-03 22:30 -40.50485 -72.76951 22653 ft 367 kts 204°
2026-05-03 22:30 -40.52929 -72.77753 22209 ft 365 kts 204°
2026-05-03 22:31 -40.55393 -72.78566 21755 ft 363 kts 204°
2026-05-03 22:31 -40.57816 -72.79365 21319 ft 361 kts 204°
2026-05-03 22:31 -40.60257 -72.80171 20882 ft 358 kts 204°
2026-05-03 22:31 -40.62665 -72.80964 20482 ft 355 kts 204°
2026-05-03 22:32 -40.65075 -72.81758 20039 ft 354 kts 204°
2026-05-03 22:32 -40.67448 -72.82546 19568 ft 354 kts 204°
2026-05-03 22:32 -40.69821 -72.83332 19132 ft 352 kts 204°
2026-05-03 22:32 -40.72203 -72.84121 18731 ft 349 kts 203°
2026-05-03 22:33 -40.74549 -72.84896 18298 ft 348 kts 204°
2026-05-03 22:33 -40.76891 -72.85675 17840 ft 348 kts 203°
2026-05-03 22:33 -40.79252 -72.86455 17394 ft 346 kts 204°
2026-05-03 22:33 -40.81560 -72.87221 16968 ft 345 kts 203°
2026-05-03 22:34 -40.83894 -72.88000 16538 ft 344 kts 203°
2026-05-03 22:34 -40.86200 -72.88765 16092 ft 343 kts 203°
2026-05-03 22:34 -40.88522 -72.89537 15649 ft 342 kts 203°
2026-05-03 22:34 -40.90831 -72.90308 15231 ft 341 kts 202°
2026-05-03 22:35 -40.93122 -72.91042 14789 ft 342 kts 201°
2026-05-03 22:35 -40.95465 -72.91616 14349 ft 344 kts 197°
2026-05-03 22:35 -40.97861 -72.92004 13903 ft 346 kts 194°
2026-05-03 22:35 -41.00269 -72.92313 13457 ft 345 kts 193°
2026-05-03 22:36 -41.02634 -72.92600 12990 ft 345 kts 193°
2026-05-03 22:36 -41.05038 -72.92896 12495 ft 346 kts 193°
2026-05-03 22:36 -41.07428 -72.93188 12016 ft 345 kts 192°
2026-05-03 22:36 -41.09805 -72.93484 11528 ft 344 kts 192°
2026-05-03 22:37 -41.12197 -72.93780 11033 ft 344 kts 192°
2026-05-03 22:37 -41.14566 -72.94071 10740 ft 335 kts 192°
2026-05-03 22:37 -41.16870 -72.94348 10508 ft 324 kts 192°
2026-05-03 22:37 -41.19057 -72.94614 10342 ft 313 kts 192°
2026-05-03 22:38 -41.21194 -72.94878 10152 ft 303 kts 192°
2026-05-03 22:38 -41.23264 -72.95137 10032 ft 291 kts 192°
2026-05-03 22:38 -41.25257 -72.95385 9815 ft 285 kts 192°
2026-05-03 22:38 -41.27221 -72.95550 9464 ft 285 kts 189°
2026-05-03 22:39 -41.29216 -72.95631 9130 ft 284 kts 188°
2026-05-03 22:39 -41.31187 -72.95697 8806 ft 282 kts 187°
2026-05-03 22:39 -41.33133 -72.95757 8485 ft 280 kts 188°
2026-05-03 22:39 -41.35078 -72.95821 8177 ft 278 kts 187°
2026-05-03 22:40 -41.37015 -72.95885 7859 ft 276 kts 187°
2026-05-03 22:40 -41.38937 -72.95946 7553 ft 274 kts 187°
2026-05-03 22:40 -41.40821 -72.96007 7242 ft 273 kts 187°
2026-05-03 22:40 -41.42744 -72.96073 6932 ft 271 kts 187°
2026-05-03 22:41 -41.44625 -72.96136 6636 ft 270 kts 187°
2026-05-03 22:41 -41.46496 -72.96198 6331 ft 269 kts 186°
2026-05-03 22:41 -41.48364 -72.96259 6040 ft 267 kts 187°
2026-05-03 22:41 -41.50211 -72.96322 5750 ft 266 kts 186°
2026-05-03 22:42 -41.52072 -72.96383 5456 ft 265 kts 186°
2026-05-03 22:42 -41.53899 -72.96445 5168 ft 263 kts 186°
2026-05-03 22:42 -41.55742 -72.96506 4881 ft 262 kts 186°
2026-05-03 22:42 -41.57572 -72.96568 4593 ft 261 kts 186°
2026-05-03 22:43 -41.59356 -72.96716 4275 ft 258 kts 197°
2026-05-03 22:43 -41.60876 -72.97778 3960 ft 243 kts 230°
2026-05-03 22:43 -41.61740 -72.99648 3662 ft 231 kts 258°
2026-05-03 22:43 -41.61884 -73.01715 3384 ft 223 kts 275°
2026-05-03 22:44 -41.61816 -73.03753 3237 ft 217 kts 276°
2026-05-03 22:44 -41.61760 -73.05751 3221 ft 210 kts 275°
2026-05-03 22:44 -41.61708 -73.07654 3161 ft 200 kts 278°
2026-05-03 22:44 -41.61235 -73.09322 2982 ft 194 kts 316°
2026-05-03 22:45 -41.60028 -73.10036 2948 ft 198 kts 353°
2026-05-03 22:45 -41.58633 -73.09917 2973 ft 200 kts 359°
2026-05-03 22:45 -41.57237 -73.09835 2702 ft 200 kts 357°
2026-05-03 22:45 -41.55835 -73.09797 2425 ft 197 kts 357°
2026-05-03 22:46 -41.54521 -73.09753 2329 ft 183 kts 357°
2026-05-03 22:46 -41.53280 -73.09714 2130 ft 174 kts 357°
2026-05-03 22:46 -41.52099 -73.09678 1947 ft 161 kts 358°
2026-05-03 22:46 -41.51037 -73.09637 1736 ft 145 kts 357°
2026-05-03 22:47 -41.50027 -73.09593 1572 ft 144 kts 359°
2026-05-03 22:47 -41.49032 -73.09526 1269 ft 142 kts 358°
2026-05-03 22:47 -41.48052 -73.09535 956 ft 142 kts 359°
2026-05-03 22:47 -41.47073 -73.09471 750 ft 141 kts 359°
2026-05-03 22:48 -41.46094 -73.09474 512 ft 140 kts
2026-05-03 22:48 -41.45118 -73.09433 354 ft 138 kts
2026-05-03 22:48 -41.44179 -73.09404 287 ft 128 kts
2026-05-03 22:48 -41.43548 -73.09382 283 ft 45 kts
2026-05-03 22:49 -41.43340 -73.09373 281 ft 28 kts
2026-05-03 22:49 -41.43147 -73.09364 280 ft 26 kts
2026-05-03 22:49 -41.42981 -73.09360 277 ft 20 kts
2026-05-03 22:49 -41.42841 -73.09357 277 ft 16 kts
2026-05-03 22:50 -41.42765 -73.09355 277 ft 8 kts
2026-05-03 22:50 -41.42712 -73.09388 276 ft 10 kts 297°
2026-05-03 22:50 -41.42704 -73.09489 274 ft 9 kts 271°
2026-05-03 22:50 -41.42720 -73.09563 275 ft 8 kts 221°
2026-05-03 22:51 -41.42775 -73.09584 275 ft 8 kts 184°
2026-05-03 22:51 -41.42841 -73.09589 275 ft 9 kts 181°
2026-05-03 22:51 -41.42914 -73.09589 275 ft 10 kts 180°
2026-05-03 22:51 -41.42987 -73.09591 277 ft 10 kts 181°
2026-05-03 22:52 -41.43061 -73.09593 277 ft 11 kts 181°
2026-05-03 22:52 -41.43141 -73.09596 277 ft 11 kts 181°
2026-05-03 22:52 -41.43223 -73.09600 278 ft 11 kts 181°
2026-05-03 22:52 -41.43291 -73.09602 280 ft 7 kts 186°
2026-05-03 22:53 -41.43321 -73.09650 280 ft 7 kts 255°
2026-05-03 22:53 -41.43326 -73.09717 279 ft 3 kts 270°
2026-05-03 22:53 -41.43326 -73.09751 279 ft 0 kts 270°
2026-05-03 22:53 -41.43326 -73.09753 279 ft 0 kts 270°